Osceola, WI

1:29 PM CST on November 20, 2019 (GMT -0600)
Simenstad Municipal

Weather History for KOEO - October, 2019

Change the Weather History Date:

Sunday, October 20, 2019

  Actual Average (KANE) Record (KANE)
Temperature  
Mean Temperature 48 °F -  
Max Temperature 65 °F 53 °F 78 °F (2017)
Min Temperature 31 °F 37 °F 24 °F (1999)
Degree Days  
Heating Degree Days 17    
Moisture  
Dew Point 36 °F    
Average Humidity 67    
Maximum Humidity 100    
Minimum Humidity 29    
Precipitation  
Precipitation 0.00 in - - ()
Sea Level Pressure  
Sea Level Pressure 29.85 in    
Wind  
Wind Speed 3 mph (SE)    
Max Wind Speed 14 mph    
Max Gust Speed 17 mph    
Visibility 10 miles    
Events      
Averages and records for this station are not official NWS values.
T = Trace of Precipitation, MM = Missing Value Source: NWS Daily Summary

Daily Weather History Graph

Daily Weather History Graph

Search for Another Location

Airport or City:

Astronomy

Oct. 20, 2019 Rise Set
Actual Time 7:33 AM CDT 6:17 PM CDT
Civil Twilight 7:03 AM CDT 6:47 PM CDT
Nautical Twilight 6:28 AM CDT 7:21 PM CDT
Astronomical Twilight 5:54 AM CDT 7:55 PM CDT
Moon 11:15 PM CDT 2:13 PM CDT
Length of Visible Light 11h 43m
Length of Day
10h 44m
Waning Gibbous, 59% of the Moon is Illuminated
Oct 20
Waning Gibbous
Oct 21
Last Quarter
Oct 27
New
Nov 4
First Quarter
Nov 12
Full

Hourly Weather History & Observations

Time (CDT) Temp. Windchill Dew Point Humidity Pressure Visibility Wind Dir Wind Speed Gust Speed Precip Events Conditions
12:15 AM 37.0 °F - 36.1 °F 97% 29.77 in 10.0 mi Calm Calm - N/A   Clear
12:35 AM 37.4 °F - 35.8 °F 94% 29.77 in 10.0 mi Calm Calm - N/A   Clear
12:55 AM 35.4 °F - 35.2 °F 99% 29.77 in 10.0 mi Calm Calm - N/A   Clear
1:15 AM 36.0 °F - 35.2 °F 97% 29.78 in 10.0 mi Calm Calm - N/A   Clear
1:35 AM 34.9 °F - 34.9 °F 100% 29.78 in 10.0 mi Calm Calm - N/A   Clear
1:55 AM 35.4 °F - 35.4 °F 100% 29.78 in 10.0 mi Calm Calm - N/A   Clear
2:15 AM 34.7 °F - 34.7 °F 100% 29.78 in 10.0 mi Calm Calm - N/A   Clear
2:35 AM 34.9 °F - 34.9 °F 100% 29.79 in 10.0 mi Calm Calm - N/A   Clear
2:55 AM 34.7 °F - 34.7 °F 100% 29.79 in 10.0 mi Calm Calm - N/A   Clear
3:15 AM 34.5 °F - 34.2 °F 99% 29.79 in 10.0 mi Calm Calm - N/A   Clear
3:35 AM 34.0 °F - 34.0 °F 100% 29.79 in 10.0 mi Calm Calm - N/A   Clear
3:55 AM 33.3 °F - 33.3 °F 100% 29.79 in 10.0 mi Calm Calm - N/A   Clear
4:15 AM 32.4 °F - 32.4 °F 100% 29.80 in 10.0 mi Calm Calm - N/A   Clear
4:35 AM 33.3 °F - 33.3 °F 100% 29.81 in 10.0 mi Calm Calm - N/A   Clear
4:55 AM 32.9 °F - 32.9 °F 100% 29.81 in 10.0 mi Calm Calm - N/A   Clear
5:15 AM 32.2 °F - 32.2 °F 100% 29.82 in 10.0 mi Calm Calm - N/A   Clear
5:35 AM 32.7 °F - 32.7 °F 100% 29.83 in 10.0 mi Calm Calm - N/A   Clear
5:55 AM 33.8 °F - 33.8 °F 100% 29.83 in 10.0 mi Calm Calm - N/A   Clear
6:15 AM 32.4 °F - 32.4 °F 100% 29.84 in 10.0 mi Calm Calm - N/A   Clear
6:35 AM 31.5 °F - 31.5 °F 100% 29.85 in 10.0 mi Calm Calm - N/A   Clear
6:55 AM 32.0 °F - 32.0 °F 100% 29.85 in 10.0 mi Calm Calm - N/A   Clear
7:15 AM 31.6 °F - 31.6 °F 100% 29.85 in 10.0 mi Calm Calm - N/A   Clear
7:35 AM 32.4 °F 27.9 °F 32.4 °F 100% 29.85 in 10.0 mi East 4.6 mph - N/A   Clear
7:55 AM 32.0 °F 28.7 °F 32.0 °F 100% 29.87 in 10.0 mi ESE 3.5 mph - N/A   Clear
8:15 AM 33.8 °F - 33.8 °F 100% 29.87 in 10.0 mi Calm Calm - N/A   Clear
8:35 AM 35.1 °F - 35.1 °F 100% 29.88 in 10.0 mi Calm Calm - N/A   Clear
8:55 AM 38.1 °F - 38.1 °F 100% 29.89 in 10.0 mi Calm Calm - N/A   Clear
9:15 AM 42.3 °F - 40.1 °F 92% 29.90 in 10.0 mi Calm Calm - N/A   Clear
9:35 AM 46.0 °F - 40.5 °F 81% 29.91 in 10.0 mi Calm Calm - N/A   Clear
9:55 AM 48.2 °F - 40.1 °F 74% 29.91 in 10.0 mi Calm Calm - N/A   Clear
10:15 AM 50.2 °F - 40.8 °F 70% 29.91 in 10.0 mi Calm Calm - N/A   Clear
10:35 AM 52.2 °F - 40.8 °F 65% 29.90 in 10.0 mi Calm Calm - N/A   Clear
10:55 AM 54.1 °F - 39.9 °F 59% 29.90 in 10.0 mi Calm Calm - N/A   Clear
11:15 AM 56.8 °F - 40.3 °F 54% 29.89 in 10.0 mi Calm Calm - N/A   Clear
11:35 AM 59.0 °F - 36.7 °F 43% 29.89 in 10.0 mi South 3.5 mph - N/A   Clear
11:55 AM 60.4 °F - 35.1 °F 39% 29.89 in 10.0 mi South 5.8 mph - N/A   Clear
12:15 PM 61.9 °F - 34.7 °F 36% 29.90 in 10.0 mi South 6.9 mph - N/A   Clear
12:35 PM 63.0 °F - 35.2 °F 36% 29.90 in 10.0 mi SSE 9.2 mph - N/A   Clear
12:55 PM 63.1 °F - 34.0 °F 34% 29.90 in 10.0 mi South 6.9 mph - N/A   Clear
1:15 PM 63.9 °F - 34.3 °F 33% 29.89 in 10.0 mi SSE 6.9 mph - N/A   Clear
1:35 PM 64.4 °F - 33.3 °F 31% 29.89 in 10.0 mi SSE 8.1 mph - N/A   Clear
1:55 PM 64.6 °F - 31.8 °F 29% 29.88 in 10.0 mi SSE 4.6 mph - N/A   Clear
2:15 PM 65.1 °F - 32.7 °F 30% 29.88 in 10.0 mi South 8.1 mph - N/A   Clear
2:35 PM 65.5 °F - 32.9 °F 30% 29.87 in 10.0 mi SSE 9.2 mph - N/A   Clear
2:55 PM 65.5 °F - 33.6 °F 31% 29.87 in 10.0 mi ESE 6.9 mph - N/A   Clear
3:15 PM 63.5 °F - 32.9 °F 32% 29.86 in 10.0 mi SE 6.9 mph - N/A   Clear
3:35 PM 64.6 °F - 32.2 °F 30% 29.87 in 10.0 mi SE 6.9 mph - N/A   Clear
3:55 PM 64.4 °F - 34.0 °F 32% 29.87 in 10.0 mi ESE 9.2 mph - N/A   Clear
4:15 PM 63.3 °F - 34.2 °F 34% 29.88 in 10.0 mi SE 6.9 mph - N/A   Clear
4:35 PM 62.8 °F - 34.3 °F 35% 29.87 in 10.0 mi SE 8.1 mph - N/A   Clear
4:55 PM 62.1 °F - 35.6 °F 37% 29.87 in 10.0 mi ESE 6.9 mph - N/A   Clear
5:15 PM 60.6 °F - 37.6 °F 42% 29.86 in 10.0 mi ESE 6.9 mph - N/A   Clear
5:35 PM 59.7 °F - 37.6 °F 44% 29.86 in 10.0 mi ESE 6.9 mph - N/A   Clear
5:55 PM 58.6 °F - 37.4 °F 45% 29.86 in 10.0 mi East 5.8 mph - N/A   Clear
6:15 PM 58.1 °F - 37.0 °F 45% 29.86 in 10.0 mi East 4.6 mph - N/A   Clear
6:35 PM 58.6 °F - 37.2 °F 45% 29.85 in 10.0 mi East 6.9 mph - N/A   Clear
6:55 PM 57.6 °F - 37.6 °F 47% 29.86 in 10.0 mi East 6.9 mph - N/A   Scattered Clouds
7:15 PM 57.9 °F - 36.7 °F 45% 29.85 in 10.0 mi East 9.2 mph - N/A   Mostly Cloudy
7:35 PM 58.1 °F - 36.9 °F 45% 29.86 in 10.0 mi East 9.2 mph - N/A   Mostly Cloudy
7:55 PM 56.8 °F - 37.6 °F 49% 29.86 in 10.0 mi ESE 9.2 mph - N/A   Scattered Clouds
8:15 PM 56.7 °F - 37.6 °F 49% 29.86 in 10.0 mi East 9.2 mph - N/A   Clear
8:35 PM 56.5 °F - 37.4 °F 49% 29.86 in 10.0 mi East 10.4 mph - N/A   Clear
8:55 PM 56.3 °F - 37.4 °F 49% 29.87 in 10.0 mi ESE 9.2 mph - N/A   Scattered Clouds
9:15 PM 56.3 °F - 37.4 °F 49% 29.87 in 10.0 mi ESE 10.4 mph - N/A   Scattered Clouds
9:35 PM 56.3 °F - 37.9 °F 50% 29.87 in 10.0 mi ESE 12.7 mph - N/A   Clear
9:55 PM 55.9 °F - 38.3 °F 52% 29.86 in 10.0 mi ESE 11.5 mph - N/A   Clear
10:15 PM 55.8 °F - 38.7 °F 53% 29.86 in 10.0 mi ESE 12.7 mph - N/A   Clear
10:35 PM 55.6 °F - 39.2 °F 54% 29.86 in 10.0 mi ESE 12.7 mph 17.3 mph N/A   Clear
10:55 PM 55.2 °F - 39.7 °F 56% 29.84 in 10.0 mi ESE 12.7 mph - N/A   Clear
11:15 PM 54.7 °F - 40.1 °F 58% 29.84 in 10.0 mi ESE 13.8 mph - N/A   Clear
11:35 PM 54.5 °F - 40.5 °F 59% 29.84 in 10.0 mi ESE 11.5 mph - N/A   Clear
11:55 PM 54.5 °F - 41.0 °F 60% 29.83 in 10.0 mi ESE 11.5 mph - N/A   Clear